Hourly Data Report for January 11, 2012

HALIFAX STANFIELD INT'L A
NOVA SCOTIA

44°52'48.060" N
63°30'00.050" W
145.40 m
8202250
71395
YHZ

Download Data

Hourly Data (January 2012)
Hourly Data Report for January 11, 2012
TIME
LST
Temp Definition
°C
Dew Point Definition
°C
Rel Hum Definition
%
Precip. Amount Definition
mm

Wind Dir Definition
10's deg

Wind Spd Definition
km/h
Visibility Definition
km
Stn Press Definition
kPa
Hmdx Definition


Wind Chill Definition


Weather Definition


00:00 0.1 -0.9 93   25 13 24.1 98.67     Snow Showers
01:00 -0.1 -1.0 94   27 13 24.1 98.68   -4 Mostly Cloudy
02:00 -0.6 -1.8 92   29 17 24.1 98.71   -6 Mainly Clear
03:00 -0.4 -2.9 83   31 26 24.1 98.77   -7 Cloudy
04:00 -0.7 -3.7 80   31 24 24.1 98.86   -7 Snow Showers
05:00 -1.9 -6.0 74   31 24 24.1 98.92   -8 Mostly Cloudy
06:00 -3.0 -6.5 77   31 33 24.1 99.02   -11 Snow Showers
07:00 -5.7 -8.3 82   35 35 24.1 99.21   -14 Snow Showers
08:00 -7.9 -11.1 78   34 26 24.1 99.32   -16 Snow Showers
09:00 -10.3 -14.4 72   35 32 24.1 99.53   -20 Mostly Cloudy
10:00 -10.8 -15.9 66   32 33 24.1 99.64   -21 Mainly Clear
11:00 -11.0 -16.2 65   33 33 24.1 99.68   -21 Clear
12:00 -10.1 -15.3 66   34 41 24.1 99.65   -21 Clear
13:00 -9.6 -15.4 63   34 24 24.1 99.70   -18 Clear
14:00 -9.7 -15.6 62   33 26 24.1 99.77   -19 Clear
15:00 -9.6 -15.7 61   32 26 24.1 99.91   -18 Mainly Clear
16:00 -9.7 -16.0 60   34 17 24.1 100.06   -17 Mainly Clear
17:00 -10.6 -15.8 66   34 20 24.1 100.19   -19 Mainly Clear
18:00 -11.7 -15.6 73   34 19 24.1 100.27   -20 Mainly Clear
19:00 -12.4 -15.6 77   35 13 24.1 100.37   -19 Mainly Clear
20:00 -12.7 -15.5 80   33 7 24.1 100.43   -17 Mainly Clear
21:00 -12.7 -15.3 81   30 11 24.1 100.52   -19 Clear
22:00 -12.7 -15.3 81   33 13 24.1 100.46   -20 Clear
23:00 -13.1 -15.3 84   35 15 24.1 100.41   -21 Clear

Notes on Data Quality.

Legend

  • E = Estimated
  • M = Missing
  • NA = Not Available*
  • [empty] = Indicates an unobserved value
Date modified: